This is the latest recevied weather packets stored in our database for station/object KF0JHJ. If no packets are shown the sender has not sent any weather packets the latest 10 day(s).
| Time | Temp. | Humidity | Pressure | Rain* | Wind** | Luminosity | Snow |
|---|---|---|---|---|---|---|---|
| 1777664047 | 12.78° C | 40% | 1016.5 hPa | - | - | 234 W/m² | - |
| 1777663744 | 11.67° C | 42% | 1016.6 hPa | - | - | 725 W/m² | - |
| 1777663441 | 12.22° C | 44% | 1016.8 hPa | - | - | 705 W/m² | - |
| 1777663138 | 11.11° C | 43% | 1016.9 hPa | - | - | 700 W/m² | - |
| 1777662835 | 10.56° C | 42% | 1016.9 hPa | - | - | 311 W/m² | - |
| 1777662532 | 11.67° C | 42% | 1016.9 hPa | - | - | 417 W/m² | - |
| 1777662228 | 11.11° C | 45% | 1016.7 hPa | - | - | 762 W/m² | - |
| 1777661923 | 11.11° C | 42% | 1016.7 hPa | - | - | 329 W/m² | - |
| 1777661619 | 10.56° C | 41% | 1016.8 hPa | - | - | 207 W/m² | - |
| 1777661315 | 11.11° C | 43% | 1016.9 hPa | - | - | 272 W/m² | - |
| 1777661011 | 10° C | 42% | 1016.7 hPa | - | - | 155 W/m² | - |
| 1777660707 | 10.56° C | 40% | 1016.8 hPa | - | - | 160 W/m² | - |
| 1777660405 | 11.67° C | 40% | 1016.6 hPa | - | - | 800 W/m² | - |
| 1777660100 | 11.11° C | 43% | 1016.7 hPa | - | - | 652 W/m² | - |
| 1777659798 | 10.56° C | 44% | 1017 hPa | - | - | 749 W/m² | - |
| 1777659494 | 11.11° C | 47% | 1016.9 hPa | - | - | 745 W/m² | - |
| 1777659192 | 9.44° C | 45% | 1017 hPa | - | - | 735 W/m² | - |
| 1777658889 | 10° C | 45% | 1017 hPa | - | - | 143 W/m² | - |
| 1777658585 | 10° C | 43% | 1016.8 hPa | - | - | 343 W/m² | - |
| 1777658282 | 9.44° C | 45% | 1017 hPa | - | - | 210 W/m² | - |
| 1777657979 | 10° C | 46% | 1017 hPa | - | - | 157 W/m² | - |
| 1777657675 | 9.44° C | 46% | 1017 hPa | - | - | 174 W/m² | - |
| 1777657373 | 9.44° C | 44% | 1016.9 hPa | - | - | 170 W/m² | - |
| 1777657070 | 10° C | 45% | 1017.1 hPa | - | - | 794 W/m² | - |
| 1777656767 | 10° C | 45% | 1017.1 hPa | - | - | 366 W/m² | - |
* Rain since midnight (hover to see other rain measurements)
** Current wind speed in m/s (hover to see current wind gust speed)